ProjectID,Date,Electric Generation,Electric Utility Import,Facility Electric Load
,YYYY-MM-DD,kW,kW,kW
87,2012-03-20,21.0695,,21.0695
87,2012-03-21,17.185416666666665,,17.185416666666665
87,2012-03-22,45.428125,,45.428125
87,2012-03-23,38.2125,,38.2125
87,2012-03-24,31.835416666666664,,31.835416666666664
87,2012-03-25,13.918750000000001,,13.918750000000001
87,2012-03-26,53.574999999999996,,53.574999999999996
87,2012-03-27,57.78125,,57.78125
87,2012-03-28,35.859375,,35.859375
87,2012-03-29,46.47708333333333,,46.47708333333333
87,2012-03-30,55.97604166666667,,55.97604166666667
87,2012-03-31,7.2054583333333335,,7.2054583333333335
87,2012-04-01,26.86145833333333,,26.86145833333333
87,2012-04-02,55.13229166666667,,55.13229166666667
87,2012-04-03,59.25,,59.25
87,2012-04-04,59.28125,,59.28125
87,2012-04-05,57.271875,,57.271875
87,2012-04-06,60.83645833333333,,60.83645833333333
87,2012-04-07,61.43125,,61.43125
87,2012-04-08,60.151041666666664,,60.151041666666664
87,2012-04-09,47.9625,,47.9625
87,2012-04-10,38.35104166666667,,38.35104166666667
87,2012-04-11,32.677083333333336,,32.677083333333336
87,2012-04-12,47.859375,,47.859375
87,2012-04-13,58.89479166666666,,58.89479166666666
87,2012-04-14,55.880208333333336,,55.880208333333336
87,2012-04-15,46.28125,,46.28125
87,2012-04-16,55.46041666666667,,55.46041666666667
87,2012-04-17,59.153124999999996,,59.153124999999996
87,2012-04-18,35.47083333333333,,35.47083333333333
87,2012-04-19,58.671875,,58.671875
87,2012-04-20,42.994791666666664,,42.994791666666664
87,2012-04-21,58.06041666666667,,58.06041666666667
87,2012-04-22,12.420833333333334,,12.420833333333334
87,2012-04-23,15.569,,15.569
87,2012-04-24,47.76433333333333,,47.76433333333333
87,2012-04-25,43.429624999999994,,43.429624999999994
87,2012-04-26,18.05720833333333,,18.05720833333333
87,2012-04-27,60.89058333333333,,60.89058333333333
87,2012-04-28,58.7605,,58.7605
87,2012-04-29,68.26304166666667,,68.26304166666667
87,2012-04-30,59.29820833333333,,59.29820833333333
87,2012-05-01,31.436208333333337,,31.436208333333337
87,2012-05-02,10.471291666666668,,10.471291666666668
87,2012-05-03,17.272208333333335,,17.272208333333335
87,2012-05-04,33.96883333333333,,33.96883333333333
87,2012-05-05,17.934958333333334,,17.934958333333334
87,2012-05-06,71.94154166666667,,71.94154166666667
87,2012-05-07,45.43866666666667,,45.43866666666667
87,2012-05-08,33.836083333333335,,33.836083333333335
87,2012-05-09,16.058625,,16.058625
87,2012-05-10,53.246125,,53.246125
87,2012-05-11,69.75791666666667,,69.75791666666667
87,2012-05-12,68.11466666666666,,68.11466666666666
87,2012-05-13,64.05995833333334,,64.05995833333334
87,2012-05-14,20.190208333333334,,20.190208333333334
87,2012-05-15,12.440166666666668,,12.440166666666668
87,2012-05-16,44.708416666666665,,44.708416666666665
87,2012-05-17,72.48316666666666,,72.48316666666666
87,2012-05-18,72.132875,,72.132875
87,2012-05-19,70.93620833333334,,70.93620833333334
87,2012-05-20,72.85295833333333,,72.85295833333333
87,2012-05-21,10.131541666666667,,10.131541666666667
87,2012-05-22,47.20183333333333,,47.20183333333333
87,2012-05-23,32.68233333333333,,32.68233333333333
87,2012-05-24,9.33725,,9.33725
87,2012-05-25,36.684916666666666,,36.684916666666666
87,2012-05-26,46.59641666666667,,46.59641666666667
87,2012-05-27,52.389375,,52.389375
87,2012-05-28,64.11341666666667,,64.11341666666667
87,2012-05-29,65.06512500000001,,65.06512500000001
87,2012-05-30,29.97666666666667,,29.97666666666667
87,2012-05-31,70.96233333333333,,70.96233333333333
87,2012-06-01,49.296875,,49.296875
87,2012-06-02,56.51316666666667,,56.51316666666667
87,2012-06-03,57.84516666666667,,57.84516666666667
87,2012-06-04,20.627666666666666,,20.627666666666666
87,2012-06-05,31.514375,,31.514375
87,2012-06-06,44.694041666666664,,44.694041666666664
87,2012-06-07,53.809958333333334,,53.809958333333334
87,2012-06-08,62.83079166666667,,62.83079166666667
87,2012-06-09,30.700666666666667,,30.700666666666667
87,2012-06-10,47.53258333333333,,47.53258333333333
87,2012-06-11,50.819041666666664,,50.819041666666664
87,2012-06-12,18.629041666666666,,18.629041666666666
87,2012-06-13,22.17975,,22.17975
87,2012-06-14,59.440125,,59.440125
87,2012-06-15,71.70845833333333,,71.70845833333333
87,2012-06-16,74.10425,,74.10425
87,2012-06-17,58.59775,,58.59775
87,2012-06-18,62.692874999999994,,62.692874999999994
87,2012-06-19,43.78395833333334,,43.78395833333334
87,2012-06-20,60.73704166666667,,60.73704166666667
87,2012-06-21,64.11329166666667,,64.11329166666667
87,2012-06-22,37.463541666666664,,37.463541666666664
87,2012-06-23,70.94929166666667,,70.94929166666667
87,2012-06-24,57.579499999999996,,57.579499999999996
87,2012-06-25,29.367333333333335,,29.367333333333335
87,2012-06-26,54.79175,,54.79175
87,2012-06-27,73.181,,73.181
87,2012-06-28,63.039125000000006,,63.039125000000006
87,2012-06-29,61.825583333333334,,61.825583333333334
87,2012-06-30,61.22270833333334,,61.22270833333334
87,2012-07-01,60.065125,,60.065125
87,2012-07-02,61.39191666666667,,61.39191666666667
87,2012-07-03,58.630291666666665,,58.630291666666665
87,2012-07-04,63.40895833333334,,63.40895833333334
87,2012-07-05,62.824333333333335,,62.824333333333335
87,2012-07-06,65.85291666666667,,65.85291666666667
87,2012-07-07,49.68883333333333,,49.68883333333333
87,2012-07-08,63.66054166666667,,63.66054166666667
87,2012-07-09,56.92158333333333,,56.92158333333333
87,2012-07-10,62.85295833333333,,62.85295833333333
87,2012-07-11,61.85816666666667,,61.85816666666667
87,2012-07-12,65.13425,,65.13425
87,2012-07-13,38.54304166666667,,38.54304166666667
87,2012-07-14,38.29833333333333,,38.29833333333333
87,2012-07-15,40.651125,,40.651125
87,2012-07-16,55.916666666666664,,55.916666666666664
87,2012-07-17,60.815125,,60.815125
87,2012-07-18,37.29825,,37.29825
87,2012-07-19,20.687541666666664,,20.687541666666664
87,2012-07-20,10.856791666666666,,10.856791666666666
87,2012-07-21,62.44283333333333,,62.44283333333333
87,2012-07-22,62.04833333333334,,62.04833333333334
87,2012-07-23,37.62254166666667,,37.62254166666667
87,2012-07-24,61.15108333333333,,61.15108333333333
87,2012-07-25,68.93495833333334,,68.93495833333334
87,2012-07-26,47.158875,,47.158875
87,2012-07-27,48.71879166666667,,48.71879166666667
87,2012-07-28,16.838666666666665,,16.838666666666665
87,2012-07-29,33.66404166666667,,33.66404166666667
87,2012-07-30,46.888083333333334,,46.888083333333334
87,2012-07-31,48.224041666666665,,48.224041666666665
87,2012-08-01,17.791708333333332,,17.791708333333332
87,2012-08-02,57.92966666666666,,57.92966666666666
87,2012-08-03,49.300875,,49.300875
87,2012-08-04,59.63033333333333,,59.63033333333333
87,2012-08-05,43.612,,43.612
87,2012-08-06,57.836000000000006,,57.836000000000006
87,2012-08-07,49.54695833333333,,49.54695833333333
87,2012-08-08,42.563916666666664,,42.563916666666664
87,2012-08-09,51.293083333333335,,51.293083333333335
87,2012-08-10,26.880375,,26.880375
87,2012-08-11,46.17195833333333,,46.17195833333333
87,2012-08-12,59.721375,,59.721375
87,2012-08-13,57.152458333333335,,57.152458333333335
87,2012-08-14,26.07558333333333,,26.07558333333333
87,2012-08-15,27.766916666666663,,27.766916666666663
87,2012-08-16,55.57425,,55.57425
87,2012-08-17,51.144625,,51.144625
87,2012-08-18,45.227916666666665,,45.227916666666665
87,2012-08-19,34.77483333333333,,34.77483333333333
87,2012-08-20,38.36475,,38.36475
87,2012-08-21,48.71616666666667,,48.71616666666667
87,2012-08-22,38.59258333333333,,38.59258333333333
87,2012-08-23,48.05204166666667,,48.05204166666667
87,2012-08-24,45.918083333333335,,45.918083333333335
87,2012-08-25,38.35033333333333,,38.35033333333333
87,2012-08-26,51.60420833333333,,51.60420833333333
87,2012-08-27,33.9975,,33.9975
87,2012-08-28,50.32429166666666,,50.32429166666666
87,2012-08-29,59.648500000000006,,59.648500000000006
87,2012-08-30,56.82041666666667,,56.82041666666667
87,2012-08-31,55.10820833333333,,55.10820833333333
87,2012-09-01,48.73704166666667,,48.73704166666667
87,2012-09-02,28.683708333333332,,28.683708333333332
87,2012-09-03,21.68241666666667,,21.68241666666667
87,2012-09-04,20.695375000000002,,20.695375000000002
87,2012-09-05,20.023500000000002,,20.023500000000002
87,2012-09-06,24.600291666666667,,24.600291666666667
87,2012-09-07,45.28787500000001,,45.28787500000001
87,2012-09-08,36.168083333333335,,36.168083333333335
87,2012-09-09,45.03266666666667,,45.03266666666667
87,2012-09-10,48.00533333333333,,48.00533333333333
87,2012-09-11,54.800875,,54.800875
87,2012-09-12,51.075583333333334,,51.075583333333334
87,2012-09-13,50.14595833333333,,50.14595833333333
87,2012-09-14,48.07304166666666,,48.07304166666666
87,2012-09-15,51.868500000000004,,51.868500000000004
87,2012-09-16,46.30345833333333,,46.30345833333333
87,2012-09-17,45.80608333333333,,45.80608333333333
87,2012-09-18,8.563916666666666,,8.563916666666666
87,2012-09-19,52.161541666666665,,52.161541666666665
87,2012-09-20,26.764375,,26.764375
87,2012-09-21,48.73704166666667,,48.73704166666667
87,2012-09-22,36.1915,,36.1915
87,2012-09-23,52.60037500000001,,52.60037500000001
87,2012-09-24,47.793083333333335,,47.793083333333335
87,2012-09-25,48.567791666666665,,48.567791666666665
87,2012-09-26,19.889375,,19.889375
87,2012-09-27,26.55995833333333,,26.55995833333333
87,2012-09-28,12.149791666666667,,12.149791666666667
87,2012-09-29,11.114583333333334,,11.114583333333334
87,2012-09-30,32.907625,,32.907625
87,2012-10-01,45.063874999999996,,45.063874999999996
87,2012-10-02,8.379,,8.379
87,2012-10-03,11.911499999999998,,11.911499999999998
87,2012-10-04,13.330791666666668,,13.330791666666668
87,2012-10-05,39.056041666666665,,39.056041666666665
87,2012-10-06,28.694083333333335,,28.694083333333335
87,2012-10-07,10.071708333333333,,10.071708333333333
87,2012-10-08,17.389375,,17.389375
87,2012-10-09,7.911541666666667,,7.911541666666667
87,2012-10-10,30.932333333333332,,30.932333333333332
87,2012-10-11,42.06516666666666,,42.06516666666666
87,2012-10-12,20.95975,,20.95975
87,2012-10-13,41.63158333333333,,41.63158333333333
87,2012-10-14,28.893333333333334,,28.893333333333334
87,2012-10-15,16.050875,,16.050875
87,2012-10-16,41.265625,,41.265625
87,2012-10-17,29.208416666666665,,29.208416666666665
87,2012-10-18,31.701916666666666,,31.701916666666666
87,2012-10-19,6.227875,,6.227875
87,2012-10-20,34.589958333333335,,34.589958333333335
87,2012-10-21,36.511833333333335,,36.511833333333335
87,2012-10-22,35.86204166666666,,35.86204166666666
87,2012-10-23,12.649791666666667,,12.649791666666667
87,2012-10-24,10.740958333333333,,10.740958333333333
87,2012-10-25,9.916666666666666,,9.916666666666666
87,2012-10-26,10.656291666666666,,10.656291666666666
87,2012-10-27,13.148458333333332,,13.148458333333332
87,2012-10-28,5.513041666666666,,5.513041666666666
87,2012-10-29,3.4309999999999996,,3.4309999999999996
87,2012-10-30,10.31775,,10.31775
87,2012-10-31,12.299583333333333,,12.299583333333333
87,2012-11-01,16.722625,,16.722625
87,2012-11-02,16.113333333333333,,16.113333333333333
87,2012-11-03,23.921958333333333,,23.921958333333333
87,2012-11-04,32.907666666666664,,32.907666666666664
87,2012-11-05,29.018291666666666,,29.018291666666666
87,2012-11-06,29.101583333333334,,29.101583333333334
87,2012-11-07,2.876375,,2.876375
87,2012-11-08,0.10545833333333333,,0.10545833333333333
87,2012-11-09,4.115875,,4.115875
87,2012-11-10,14.932375,,14.932375
87,2012-11-11,26.134125,,26.134125
87,2012-11-12,25.79041666666667,,25.79041666666667
87,2012-11-13,6.902375,,6.902375
87,2012-11-14,25.415375,,25.415375
87,2012-11-15,21.893291666666666,,21.893291666666666
87,2012-11-16,17.078125,,17.078125
87,2012-11-17,25.509208333333333,,25.509208333333333
87,2012-11-18,23.382791666666666,,23.382791666666666
87,2012-11-19,14.912791666666665,,14.912791666666665
87,2012-11-20,23.140625,,23.140625
87,2012-11-21,23.950541666666666,,23.950541666666666
87,2012-11-22,22.354166666666668,,22.354166666666668
87,2012-11-23,22.407541666666663,,22.407541666666663
87,2012-11-24,13.369791666666666,,13.369791666666666
87,2012-11-25,14.790416666666667,,14.790416666666667
87,2012-11-26,22.33204166666667,,22.33204166666667
87,2012-11-27,2.1952916666666664,,2.1952916666666664
87,2012-11-28,21.408916666666666,,21.408916666666666
87,2012-11-29,21.086041666666667,,21.086041666666667
87,2012-11-30,13.509166666666667,,13.509166666666667
87,2012-12-01,5.468791666666667,,5.468791666666667
87,2012-12-02,11.988291666666667,,11.988291666666667
87,2012-12-03,18.381541666666667,,18.381541666666667
87,2012-12-04,15.265666666666666,,15.265666666666666
87,2012-12-05,15.080833333333333,,15.080833333333333
87,2012-12-06,20.087333333333333,,20.087333333333333
87,2012-12-07,3.989625,,3.989625
87,2012-12-08,6.117249999999999,,6.117249999999999
87,2012-12-09,4.673166666666667,,4.673166666666667
87,2012-12-10,3.20575,,3.20575
87,2012-12-11,12.684875,,12.684875
87,2012-12-12,16.2305,,16.2305
87,2012-12-13,17.813916666666668,,17.813916666666668
87,2012-12-14,18.315166666666666,,18.315166666666666
87,2012-12-15,17.9975,,17.9975
87,2012-12-16,0.7096666666666667,,0.7096666666666667
87,2012-12-17,2.3841666666666668,,2.3841666666666668
87,2012-12-18,11.171833333333334,,11.171833333333334
87,2012-12-19,18.858125,,18.858125
87,2012-12-20,11.500083333333334,,11.500083333333334
87,2012-12-21,7.497416666666666,,7.497416666666666
87,2012-12-22,9.453125,,9.453125
87,2012-12-23,15.707083333333335,,15.707083333333335
87,2012-12-24,14.432333333333332,,14.432333333333332
87,2012-12-25,17.893291666666666,,17.893291666666666
87,2012-12-26,4.042958333333334,,4.042958333333334
87,2012-12-27,7.643249999999999,,7.643249999999999
87,2012-12-28,19.183625,,19.183625
87,2012-12-29,2.3008333333333333,,2.3008333333333333
87,2012-12-30,17.782541666666667,,17.782541666666667
87,2012-12-31,17.464875,,17.464875
87,2013-01-01,5.638083333333333,,5.638083333333333
87,2013-01-02,18.071625,,18.071625
87,2013-01-03,18.05216666666667,,18.05216666666667
87,2013-01-04,15.500124999999999,,15.500124999999999
87,2013-01-05,20.276083333333332,,20.276083333333332
87,2013-01-06,19.464875,,19.464875
87,2013-01-07,20.415458333333333,,20.415458333333333
87,2013-01-08,19.17320833333333,,19.17320833333333
87,2013-01-09,9.3425,,9.3425
87,2013-01-10,19.02225,,19.02225
87,2013-01-11,5.735708333333334,,5.735708333333334
87,2013-01-12,7.4128333333333325,,7.4128333333333325
87,2013-01-13,6.893249999999999,,6.893249999999999
87,2013-01-14,7.075541666666666,,7.075541666666666
87,2013-01-15,6.802208333333333,,6.802208333333333
87,2013-01-16,1.3372916666666665,,1.3372916666666665
87,2013-01-17,15.201916666666667,,15.201916666666667
87,2013-01-18,24.084666666666667,,24.084666666666667
87,2013-01-19,23.265666666666664,,23.265666666666664
87,2013-01-20,22.177125,,22.177125
87,2013-01-21,10.949333333333334,,10.949333333333334
87,2013-01-22,26.161541666666665,,26.161541666666665
87,2013-01-23,23.49745833333333,,23.49745833333333
87,2013-01-24,28.022208333333335,,28.022208333333335
87,2013-01-25,16.524874999999998,,16.524874999999998
87,2013-01-26,13.046875,,13.046875
87,2013-01-27,29.455833333333334,,29.455833333333334
87,2013-01-28,4.2345,,4.2345
87,2013-01-29,20.080875,,20.080875
87,2013-01-30,14.850333333333333,,14.850333333333333
87,2013-01-31,28.237041666666666,,28.237041666666666
87,2013-02-01,19.768333333333334,,19.768333333333334
87,2013-02-02,27.707083333333333,,27.707083333333333
87,2013-02-03,10.506458333333333,,10.506458333333333
87,2013-02-04,29.81125,,29.81125
87,2013-02-05,5.234375,,5.234375
87,2013-02-06,22.420625,,22.420625
87,2013-02-07,18.863333333333333,,18.863333333333333
87,2013-02-08,2.0260416666666665,,2.0260416666666665
87,2013-02-09,0.0012916666666666667,,0.0012916666666666667
87,2013-02-10,0.0,,0.0
87,2013-02-11,0.0012916666666666667,,0.0012916666666666667
87,2013-02-12,15.173250000000001,,15.173250000000001
87,2013-02-13,26.682333333333332,,26.682333333333332
87,2013-02-14,35.87895833333334,,35.87895833333334
87,2013-02-15,35.21233333333333,,35.21233333333333
87,2013-02-16,21.028708333333334,,21.028708333333334
87,2013-02-17,37.01175,,37.01175
87,2013-02-18,40.82429166666667,,40.82429166666667
87,2013-02-19,14.544375,,14.544375
87,2013-02-20,29.405041666666666,,29.405041666666666
87,2013-02-21,41.91025,,41.91025
87,2013-02-22,23.211,,23.211
87,2013-02-23,4.932291666666667,,4.932291666666667
87,2013-02-24,24.02479166666667,,24.02479166666667
87,2013-02-25,24.962208333333333,,24.962208333333333
87,2013-02-26,18.628916666666665,,18.628916666666665
87,2013-02-27,7.752666666666666,,7.752666666666666
87,2013-02-28,24.10291666666667,,24.10291666666667
87,2013-03-01,15.2605,,15.2605
87,2013-03-02,20.539125000000002,,20.539125000000002
87,2013-03-03,38.76175,,38.76175
87,2013-03-04,45.28525,,45.28525
87,2013-03-05,46.60429166666666,,46.60429166666666
87,2013-03-06,9.375,,9.375
87,2013-03-07,14.993583333333333,,14.993583333333333
87,2013-03-08,0.014374999999999999,,0.014374999999999999
87,2013-03-09,39.817791666666665,,39.817791666666665
87,2013-03-10,44.420625,,44.420625
87,2013-03-11,27.039125,,27.039125
87,2013-03-12,6.329583333333333,,6.329583333333333
87,2013-03-13,41.87891666666667,,41.87891666666667
87,2013-03-14,42.34125,,42.34125
87,2013-03-15,27.549541666666666,,27.549541666666666
87,2013-03-16,13.764416666666667,,13.764416666666667
87,2013-03-17,32.34258333333333,,32.34258333333333
87,2013-03-18,21.080791666666666,,21.080791666666666
87,2013-03-19,16.708458333333333,,16.708458333333333
87,2013-03-20,50.75920833333333,,50.75920833333333
87,2013-03-21,26.99225,,26.99225
87,2013-03-22,38.457125,,38.457125
87,2013-03-23,42.7905,,42.7905
87,2013-03-24,45.333416666666665,,45.333416666666665
87,2013-03-25,11.513083333333334,,11.513083333333334
87,2013-03-26,42.85166666666667,,42.85166666666667
87,2013-03-27,48.028708333333334,,48.028708333333334
87,2013-03-28,31.8815,,31.8815
87,2013-03-29,42.32295833333333,,42.32295833333333
87,2013-03-30,50.88025,,50.88025
87,2013-03-31,24.990875,,24.990875
87,2013-04-01,40.389375,,40.389375
87,2013-04-02,54.17320833333333,,54.17320833333333
87,2013-04-03,62.71754166666667,,62.71754166666667
87,2013-04-04,57.90766666666667,,57.90766666666667
87,2013-04-05,59.01829166666667,,59.01829166666667
87,2013-04-06,63.24220833333334,,63.24220833333334
87,2013-04-07,52.84770833333334,,52.84770833333334
87,2013-04-08,57.13554166666666,,57.13554166666666
87,2013-04-09,55.32816666666667,,55.32816666666667
87,2013-04-10,50.514375,,50.514375
87,2013-04-11,21.609416666666664,,21.609416666666664
87,2013-04-12,8.451916666666667,,8.451916666666667
87,2013-04-13,33.68758333333333,,33.68758333333333
87,2013-04-14,63.39983333333333,,63.39983333333333
87,2013-04-15,57.203125,,57.203125
87,2013-04-16,52.153708333333334,,52.153708333333334
87,2013-04-17,58.34379166666667,,58.34379166666667
87,2013-04-18,20.647208333333335,,20.647208333333335
87,2013-04-19,43.64195833333333,,43.64195833333333
87,2013-04-20,50.708333333333336,,50.708333333333336
87,2013-04-21,69.935,,69.935
87,2013-04-22,46.31908333333333,,46.31908333333333
87,2013-04-23,19.748708333333333,,19.748708333333333
87,2013-04-24,63.099041666666665,,63.099041666666665
87,2013-04-25,68.14970833333334,,68.14970833333334
87,2013-04-26,65.58466666666666,,65.58466666666666
87,2013-04-27,64.89204166666667,,64.89204166666667
87,2013-04-28,57.52483333333333,,57.52483333333333
87,2013-04-29,11.722666666666667,,11.722666666666667
87,2013-04-30,63.3165,,63.3165
87,2013-05-01,68.75395833333333,,68.75395833333333
87,2013-05-02,66.727875,,66.727875
87,2013-05-03,70.94279166666666,,70.94279166666666
87,2013-05-04,69.70579166666667,,69.70579166666667
87,2013-05-05,71.36729166666667,,71.36729166666667
87,2013-05-06,54.24875,,54.24875
87,2013-05-07,55.91545833333333,,55.91545833333333
87,2013-05-08,22.665458333333333,,22.665458333333333
87,2013-05-09,25.670625,,25.670625
87,2013-05-10,58.22408333333333,,58.22408333333333
87,2013-05-11,18.263041666666666,,18.263041666666666
87,2013-05-12,67.92716666666666,,67.92716666666666
87,2013-05-13,61.514375,,61.514375
87,2013-05-14,65.825625,,65.825625
87,2013-05-15,41.984375,,41.984375
87,2013-05-16,54.71366666666666,,54.71366666666666
87,2013-05-17,63.71741666666667,,63.71741666666667
87,2013-05-18,19.210958333333334,,19.210958333333334
87,2013-05-19,6.390708333333333,,6.390708333333333
87,2013-05-20,53.16408333333334,,53.16408333333334
87,2013-05-21,63.73704166666667,,63.73704166666667
87,2013-05-22,32.13283333333333,,32.13283333333333
87,2013-05-23,36.83475,,36.83475
87,2013-05-24,11.10425,,11.10425
87,2013-05-25,30.27870833333333,,30.27870833333333
87,2013-05-26,68.80354166666667,,68.80354166666667
87,2013-05-27,73.07433333333334,,73.07433333333334
87,2013-05-28,21.252666666666666,,21.252666666666666
87,2013-05-29,52.047,,52.047
87,2013-05-30,60.625125,,60.625125
87,2013-05-31,61.781375,,61.781375
87,2013-06-01,66.72929166666667,,66.72929166666667
87,2013-06-02,56.815125,,56.815125
87,2013-06-03,25.557333333333332,,25.557333333333332
87,2013-06-04,72.8985,,72.8985
87,2013-06-05,71.674625,,71.674625
87,2013-06-06,40.19670833333333,,40.19670833333333
87,2013-06-07,7.147166666666667,,7.147166666666667
87,2013-06-08,43.01566666666667,,43.01566666666667
87,2013-06-09,65.27875,,65.27875
87,2013-06-10,11.16675,,11.16675
87,2013-06-11,44.26691666666667,,44.26691666666667
87,2013-06-12,70.28008333333334,,70.28008333333334
87,2013-06-13,12.464833333333333,,12.464833333333333
87,2013-06-14,48.54045833333333,,48.54045833333333
87,2013-06-15,66.52220833333332,,66.52220833333332
87,2013-06-16,42.31641666666667,,42.31641666666667
87,2013-06-17,60.19283333333333,,60.19283333333333
87,2013-06-18,36.570375,,36.570375
87,2013-06-19,71.34908333333333,,71.34908333333333
87,2013-06-20,67.83341666666666,,67.83341666666666
87,2013-06-21,69.79304166666667,,69.79304166666667
87,2013-06-22,67.69275,,67.69275
87,2013-06-23,64.03916666666667,,64.03916666666667
87,2013-06-24,45.526125,,45.526125
87,2013-06-25,54.90891666666667,,54.90891666666667
87,2013-06-26,43.8895,,43.8895
87,2013-06-27,54.60295833333333,,54.60295833333333
87,2013-06-28,52.35037500000001,,52.35037500000001
87,2013-06-29,59.48320833333333,,59.48320833333333
87,2013-06-30,42.83470833333333,,42.83470833333333
87,2013-07-01,16.629,,16.629
87,2013-07-02,33.39725,,33.39725
87,2013-07-03,38.23316666666667,,38.23316666666667
87,2013-07-04,56.17458333333334,,56.17458333333334
87,2013-07-05,61.71625,,61.71625
87,2013-07-06,59.07425,,59.07425
87,2013-07-07,66.36470833333333,,66.36470833333333
87,2013-07-08,58.11595833333333,,58.11595833333333
87,2013-07-09,56.586000000000006,,56.586000000000006
87,2013-07-10,45.61470833333333,,45.61470833333333
87,2013-07-11,30.194083333333335,,30.194083333333335
87,2013-07-12,25.790291666666665,,25.790291666666665
87,2013-07-13,36.08991666666667,,36.08991666666667
87,2013-07-14,49.62379166666667,,49.62379166666667
87,2013-07-15,53.715,,53.715
87,2013-07-16,65.595125,,65.595125
87,2013-07-17,53.536541666666665,,53.536541666666665
87,2013-07-18,61.91675,,61.91675
87,2013-07-19,58.919333333333334,,58.919333333333334
87,2013-07-20,54.298249999999996,,54.298249999999996
87,2013-07-21,55.2515,,55.2515
87,2013-07-22,36.712375,,36.712375
87,2013-07-23,52.0665,,52.0665
87,2013-07-24,48.99754166666667,,48.99754166666667
87,2013-07-25,13.130249999999998,,13.130249999999998
87,2013-07-26,54.60033333333333,,54.60033333333333
87,2013-07-27,52.106875,,52.106875
87,2013-07-28,27.532625,,27.532625
87,2013-07-29,60.55350000000001,,60.55350000000001
87,2013-07-30,52.420625,,52.420625
87,2013-07-31,45.273500000000006,,45.273500000000006